Tracking 17844 objects as of 27-August-2016
HD Live streaming from Space Station
objects crossing your sky now

AMC-6 (GE-6)

Track AMC-6 (GE-6) now!
AMC-6 (GE-6) is classified as:


NORAD ID: 26580
Int'l Code: 2000-067A
Perigee: 35,782.8 km
Apogee: 35,805.6 km
Inclination: 0.0 °
Period: 1,436.1 minutes
Semi major axis: 42165 km
RCS: 19.9526 m2 (large)
Launch date: October 21, 2000
Source: SOCIETE EUROPEENNE DES SATELLITES (SES)
Launch site: TYURATAM MISSILE AND SPACE COMPLEX (TTMTR)

Business (government and VSAT), media and entertainment; 28 Ku- and 24 C-band; CONUS, Canada, Mexico, Caribbean, Central America
Your satellite tracking list
Your tracking list is empty





NASA's NSSDC Master Catalog

Two Line Element Set (TLE):
1 26580U 00067A   16240.08576675 -.00000289  00000-0  00000+0 0  9990
2 26580   0.0491 296.8246 0002702 233.5563 124.2188  1.00270136 58078
Source of the keplerian elements: AFSPC

N2YO: 517